Simultaneous Nadir Overpasses (SNOs) Predictions

Prediction of SNOs between NOAA-20 and NOAA-19 Satellite Orbit:

Table of predicted SNOs for the next 14.0 days since TLE Epoch: 8/2/2019
Index Date (NOAA-20) Time (NOAA-20) Lat,Lon (NOAA-20) SZA (NOAA-20 ) Date (NOAA-19) Time (NOAA-19) Lat,Lon (NOAA-19) SZA (NOAA-19 ) Distance(km) Time Diff (sec)
1 08/08/2019 18:51:25 79.97,-141.29 66.33 08/08/2019 18:50:23 79.96,-141.15 66.34 2.64 62
2 08/08/2019 19:42:09 -79.95, 26.20 113.70 08/08/2019 19:41:20 -79.97, 26.24 113.66 2.62 49
3 08/08/2019 20:32:55 79.97,-166.70 66.36 08/08/2019 20:32:24 79.96,-166.72 66.36 1.60 31
4 08/08/2019 21:23:39 -79.96, 0.78 113.67 08/08/2019 21:23:21 -79.97, 0.67 113.64 2.51 18
5 08/08/2019 22:14:25 79.98, 167.88 66.39 08/08/2019 22:14:24 79.98, 168.03 66.37 2.90 1
6 08/08/2019 23:05:10 -79.99, -24.93 113.59 08/08/2019 23:05:22 -79.96, -24.90 113.62 2.99 12
7 08/08/2019 23:55:55 79.98, 142.46 66.41 08/08/2019 23:56:25 79.97, 142.46 66.39 0.96 30
8 08/09/2019 00:46:39 -79.96, -50.05 113.61 08/09/2019 00:47:22 -79.98, -50.15 113.61 2.77 43
9 08/09/2019 01:37:25 79.98, 117.04 66.44 08/09/2019 01:38:25 79.99, 117.21 66.40 3.29 60




NCC Satellite Simultaneous Nadir Overpasses (SNOs) Prediction Service
